RYR44MH LEBL-EIDW

Flight info

Callsign RYR44MH
Flight time 2h 13m
Altitude 38000
Route NATPI DCT EVNAM DCT AGN DCT SECHE DCT UVELI DCT CNA DCT MANAK UY110 TIRAV UT183 BAGAD DCT DOLUR DCT UPCAB DCT IJALA DCT EVRIN DCT BUNED BUNED4L
Aircraft B738/M-SDE3FGILRWY/SB1

Departure

Time 2026-05-07 23:51
Airport Josep Tarradellas Barcelona-El Prat Airport (LEBL)

Arrival

Time 2026-05-08 02:04
Airport Dublin Airport (EIDW)
Time Latitude Longitude Altitude Speed Heading
2026-05-07 23:17 41.30037 2.07445 20 ft 0 kts 14°
2026-05-07 23:39 41.30020 2.07439 21 ft 4 kts 16°
2026-05-07 23:39 41.29998 2.07431 18 ft 2 kts 15°
2026-05-07 23:39 41.29978 2.07424 18 ft 4 kts 12°
2026-05-07 23:39 41.29955 2.07416 20 ft 4 kts 27°
2026-05-07 23:40 41.29941 2.07400 19 ft 3 kts 65°
2026-05-07 23:40 41.29933 2.07376 17 ft 1 kts 65°
2026-05-07 23:43 41.29939 2.07393 17 ft 5 kts 65°
2026-05-07 23:43 41.29962 2.07461 17 ft 11 kts 65°
2026-05-07 23:44 41.30004 2.07583 18 ft 17 kts 65°
2026-05-07 23:44 41.30059 2.07743 17 ft 20 kts 66°
2026-05-07 23:44 41.30110 2.07897 17 ft 15 kts 70°
2026-05-07 23:44 41.30047 2.07985 16 ft 15 kts 156°
2026-05-07 23:45 41.29957 2.08040 17 ft 14 kts 162°
2026-05-07 23:45 41.29867 2.08082 17 ft 13 kts 161°
2026-05-07 23:45 41.29784 2.08128 18 ft 13 kts 156°
2026-05-07 23:45 41.29698 2.08178 17 ft 15 kts 156°
2026-05-07 23:46 41.29599 2.08238 14 ft 17 kts 156°
2026-05-07 23:46 41.29488 2.08305 16 ft 17 kts 154°
2026-05-07 23:46 41.29380 2.08370 18 ft 17 kts 155°
2026-05-07 23:46 41.29276 2.08433 22 ft 16 kts 159°
2026-05-07 23:47 41.29170 2.08432 19 ft 16 kts 199°
2026-05-07 23:47 41.29069 2.08386 18 ft 15 kts 199°
2026-05-07 23:47 41.28960 2.08336 17 ft 18 kts 199°
2026-05-07 23:47 41.28824 2.08274 17 ft 23 kts 198°
2026-05-07 23:48 41.28673 2.08177 16 ft 25 kts 245°
2026-05-07 23:48 41.28603 2.07976 15 ft 23 kts 246°
2026-05-07 23:48 41.28538 2.07785 15 ft 22 kts 245°
2026-05-07 23:48 41.28474 2.07600 16 ft 22 kts 245°
2026-05-07 23:49 41.28413 2.07419 18 ft 21 kts 245°
2026-05-07 23:49 41.28317 2.07346 16 ft 14 kts 166°
2026-05-07 23:49 41.28236 2.07403 16 ft 11 kts 121°
2026-05-07 23:49 41.28242 2.07468 18 ft 0 kts 65°
2026-05-07 23:50 41.28243 2.07471 19 ft 4 kts 65°
2026-05-07 23:50 41.28325 2.07709 18 ft 62 kts 65°
2026-05-07 23:50 41.28598 2.08505 20 ft 124 kts 66°
2026-05-07 23:50 41.29025 2.09746 83 ft 166 kts 65°
2026-05-07 23:51 41.29493 2.11168 742 ft 163 kts 65°
2026-05-07 23:51 41.29850 2.12634 1288 ft 178 kts 82°
2026-05-07 23:51 41.29756 2.14423 1645 ft 211 kts 106°
2026-05-07 23:51 41.29305 2.16271 2408 ft 211 kts 106°
2026-05-07 23:52 41.28947 2.18187 3200 ft 216 kts 102°
2026-05-07 23:52 41.28634 2.20145 4127 ft 215 kts 99°
2026-05-07 23:52 41.28475 2.21444 4705 ft 216 kts 98°
2026-05-07 23:52 41.28262 2.23437 5492 ft 220 kts 97°
2026-05-07 23:53 41.26690 2.32102 8643 ft 247 kts 133°
2026-05-07 23:54 41.25426 2.33844 8870 ft 276 kts 134°
2026-05-07 23:54 41.24045 2.35723 9449 ft 289 kts 134°
2026-05-07 23:54 41.22632 2.37647 10267 ft 293 kts 134°
2026-05-07 23:54 41.21313 2.39761 10673 ft 313 kts 116°
2026-05-07 23:55 41.20858 2.42607 11263 ft 323 kts 85°
2026-05-07 23:55 41.21503 2.45452 12068 ft 326 kts 60°
2026-05-07 23:55 41.22935 2.47779 12873 ft 329 kts 39°
2026-05-07 23:55 41.24922 2.49279 13604 ft 333 kts 17°
2026-05-07 23:56 41.27226 2.49663 14310 ft 337 kts 354°
2026-05-07 23:56 41.29467 2.48762 14997 ft 342 kts 328°
2026-05-07 23:56 41.31257 2.46702 15718 ft 343 kts 309°
2026-05-07 23:56 41.32707 2.44169 16462 ft 345 kts 304°
2026-05-07 23:57 41.34074 2.41515 17152 ft 349 kts 303°
2026-05-07 23:57 41.35432 2.38823 17837 ft 353 kts 303°
2026-05-07 23:57 41.36797 2.36140 18510 ft 356 kts 303°
2026-05-07 23:57 41.38207 2.33410 19169 ft 360 kts 303°
2026-05-07 23:58 41.39644 2.30661 19803 ft 363 kts 303°
2026-05-07 23:58 41.41104 2.27892 20414 ft 367 kts 304°
2026-05-07 23:58 41.42580 2.25105 21001 ft 370 kts 303°
2026-05-07 23:58 41.44079 2.22285 21580 ft 374 kts 303°
2026-05-07 23:59 41.45588 2.19447 22158 ft 377 kts 303°
2026-05-07 23:59 41.47111 2.16581 22707 ft 381 kts 303°
2026-05-07 23:59 41.48645 2.13694 23240 ft 384 kts 303°
2026-05-07 23:59 41.50199 2.10766 23770 ft 387 kts 303°
2026-05-08 00:00 41.51760 2.07822 24276 ft 391 kts 303°
2026-05-08 00:00 41.53333 2.04852 24790 ft 393 kts 303°
2026-05-08 00:00 41.54896 2.01897 25251 ft 397 kts 303°
2026-05-08 00:00 41.56491 1.98879 25730 ft 400 kts 302°
2026-05-08 00:01 41.58095 1.95842 26206 ft 402 kts 302°
2026-05-08 00:01 41.59718 1.92764 26658 ft 405 kts 302°
2026-05-08 00:01 41.61345 1.89675 27083 ft 408 kts 302°
2026-05-08 00:01 41.62985 1.86562 27508 ft 411 kts 302°
2026-05-08 00:02 41.64633 1.83429 27930 ft 413 kts 301°
2026-05-08 00:02 41.66286 1.80281 28323 ft 416 kts 301°
2026-05-08 00:02 41.68048 1.77190 28677 ft 422 kts 309°
2026-05-08 00:02 41.70205 1.74492 29040 ft 429 kts 318°
2026-05-08 00:03 41.72686 1.72301 29384 ft 436 kts 327°
2026-05-08 00:03 41.75370 1.70357 29728 ft 440 kts 328°
2026-05-08 00:03 41.78143 1.68586 30057 ft 446 kts 336°
2026-05-08 00:03 41.81070 1.67181 30453 ft 448 kts 338°
2026-05-08 00:04 41.84013 1.65836 30942 ft 445 kts 338°
2026-05-08 00:04 41.86938 1.64507 31432 ft 443 kts 338°
2026-05-08 00:04 41.89852 1.63173 31865 ft 442 kts 338°
2026-05-08 00:04 41.92757 1.61824 32240 ft 442 kts 338°
2026-05-08 00:05 41.95659 1.60463 32600 ft 441 kts 337°
2026-05-08 00:05 41.98554 1.59095 32981 ft 440 kts 337°
2026-05-08 00:05 42.01433 1.57729 33366 ft 439 kts 337°
2026-05-08 00:05 42.04276 1.56377 33755 ft 438 kts 337°
2026-05-08 00:06 42.07141 1.55015 34114 ft 436 kts 337°
2026-05-08 00:06 42.10003 1.53650 34425 ft 437 kts 337°
2026-05-08 00:06 42.12865 1.52284 34759 ft 436 kts 337°
2026-05-08 00:06 42.15717 1.50921 35138 ft 434 kts 337°
2026-05-08 00:07 42.17601 1.50022 35403 ft 432 kts 337°
2026-05-08 00:07 42.21388 1.48213 35823 ft 431 kts 337°
2026-05-08 00:07 42.24218 1.46891 36059 ft 432 kts 338°
2026-05-08 00:07 42.27059 1.45549 36307 ft 432 kts 337°
2026-05-08 00:08 42.29847 1.44202 36613 ft 431 kts 337°
2026-05-08 00:08 42.32664 1.42835 36930 ft 429 kts 337°
2026-05-08 00:08 42.35452 1.41483 37388 ft 423 kts 337°
2026-05-08 00:08 42.38203 1.40152 37789 ft 418 kts 337°
2026-05-08 00:09 42.43228 1.37731 37927 ft 424 kts 337°
2026-05-08 00:09 42.48795 1.35044 37939 ft 424 kts 338°
2026-05-08 00:10 42.54283 1.32390 37939 ft 419 kts 338°
2026-05-08 00:10 42.59751 1.29743 37929 ft 416 kts 338°
2026-05-08 00:11 42.65191 1.27103 37964 ft 415 kts 338°
2026-05-08 00:11 42.70608 1.24474 37948 ft 412 kts 338°
2026-05-08 00:12 42.76222 1.22928 37961 ft 412 kts 352°
2026-05-08 00:12 42.81915 1.22215 37956 ft 410 kts 352°
2026-05-08 00:13 42.87571 1.21500 37948 ft 407 kts 352°
2026-05-08 00:13 42.93153 1.20755 37963 ft 406 kts 352°
2026-05-08 00:14 42.98770 1.19983 37964 ft 406 kts 352°
2026-05-08 00:14 43.04401 1.19204 37974 ft 408 kts 352°
2026-05-08 00:15 43.10056 1.18424 37972 ft 410 kts 352°
2026-05-08 00:15 43.15712 1.17640 37978 ft 413 kts 352°
2026-05-08 00:16 43.21446 1.16845 37969 ft 416 kts 352°
2026-05-08 00:16 43.27214 1.16043 37959 ft 418 kts 352°
2026-05-08 00:17 43.33009 1.15238 37964 ft 419 kts 352°
2026-05-08 00:17 43.38814 1.14426 37967 ft 420 kts 352°
2026-05-08 00:18 43.44625 1.13614 37957 ft 419 kts 352°
2026-05-08 00:18 43.50374 1.12810 37966 ft 418 kts 352°
2026-05-08 00:19 43.56147 1.11999 37953 ft 416 kts 352°
2026-05-08 00:19 43.61712 1.10173 37979 ft 409 kts 334°
2026-05-08 00:20 43.66599 1.06302 37975 ft 404 kts 326°
2026-05-08 00:20 43.71359 1.02174 37981 ft 403 kts 326°
2026-05-08 00:21 43.76097 0.98118 37976 ft 403 kts 326°
2026-05-08 00:21 43.80875 0.94058 37981 ft 403 kts 326°
2026-05-08 00:22 43.85648 0.89990 37979 ft 402 kts 326°
2026-05-08 00:22 43.90489 0.86064 37968 ft 404 kts 332°
2026-05-08 00:23 43.95604 0.82772 37976 ft 406 kts 333°
2026-05-08 00:23 44.00762 0.79545 37976 ft 407 kts 333°
2026-05-08 00:24 44.05881 0.76279 37960 ft 409 kts 333°
2026-05-08 00:24 44.11044 0.72946 37965 ft 409 kts 333°
2026-05-08 00:25 44.16209 0.69591 37972 ft 410 kts 333°
2026-05-08 00:25 44.21386 0.66222 37964 ft 411 kts 333°
2026-05-08 00:26 44.26577 0.62838 37956 ft 412 kts 333°
2026-05-08 00:26 44.31742 0.59462 37963 ft 413 kts 333°
2026-05-08 00:27 44.36944 0.56062 37967 ft 413 kts 333°
2026-05-08 00:27 44.42143 0.52656 37966 ft 412 kts 333°
2026-05-08 00:28 44.47325 0.49242 37971 ft 411 kts 333°
2026-05-08 00:28 44.52493 0.45812 37955 ft 410 kts 333°
2026-05-08 00:29 44.57609 0.42413 37959 ft 409 kts 333°
2026-05-08 00:29 44.62738 0.38998 37954 ft 408 kts 333°
2026-05-08 00:30 44.67856 0.35582 37969 ft 407 kts 332°
2026-05-08 00:30 44.72961 0.32171 37960 ft 405 kts 332°
2026-05-08 00:31 44.78050 0.28759 37972 ft 405 kts 332°
2026-05-08 00:31 44.83141 0.25345 37969 ft 405 kts 332°
2026-05-08 00:32 44.88197 0.21941 37965 ft 405 kts 332°
2026-05-08 00:32 44.93292 0.18507 37971 ft 406 kts 332°
2026-05-08 00:33 44.98395 0.15061 37983 ft 407 kts 332°
2026-05-08 00:33 45.03518 0.11598 37968 ft 409 kts 332°
2026-05-08 00:34 45.08654 0.08117 37963 ft 410 kts 332°
2026-05-08 00:34 45.13804 0.04625 37963 ft 410 kts 332°
2026-05-08 00:35 45.18917 0.01150 37955 ft 411 kts 332°
2026-05-08 00:35 45.24075 -0.02364 37984 ft 411 kts 332°
2026-05-08 00:36 45.29156 -0.05834 37955 ft 399 kts 332°
2026-05-08 00:36 45.34134 -0.09238 37960 ft 397 kts 332°
2026-05-08 00:37 45.39117 -0.12656 37973 ft 398 kts 332°
2026-05-08 00:38 45.46558 -0.17768 37969 ft 398 kts 332°
2026-05-08 00:38 45.51545 -0.21203 37970 ft 399 kts 332°
2026-05-08 00:39 45.56547 -0.24656 37973 ft 400 kts 332°
2026-05-08 00:39 45.61557 -0.28119 37972 ft 401 kts 332°
2026-05-08 00:40 45.66488 -0.31707 37950 ft 399 kts 324°
2026-05-08 00:40 45.70903 -0.36572 37951 ft 398 kts 319°
2026-05-08 00:41 45.75197 -0.41503 37972 ft 399 kts 320°
2026-05-08 00:41 45.79543 -0.46461 37966 ft 400 kts 320°
2026-05-08 00:42 45.83908 -0.51422 37959 ft 400 kts 320°
2026-05-08 00:42 45.88275 -0.56379 37978 ft 400 kts 320°
2026-05-08 00:43 45.92644 -0.61344 37964 ft 401 kts 320°
2026-05-08 00:43 45.96978 -0.66283 37975 ft 400 kts 320°
2026-05-08 00:44 46.01334 -0.71257 37962 ft 399 kts 320°
2026-05-08 00:44 46.05684 -0.76238 37971 ft 399 kts 320°
2026-05-08 00:45 46.10031 -0.81222 37977 ft 399 kts 320°
2026-05-08 00:45 46.14373 -0.86213 37968 ft 399 kts 320°
2026-05-08 00:46 46.18684 -0.91180 37977 ft 399 kts 320°
2026-05-08 00:46 46.23026 -0.96188 37980 ft 400 kts 320°
2026-05-08 00:47 46.27373 -1.01203 37967 ft 400 kts 320°
2026-05-08 00:47 46.31724 -1.06234 37981 ft 400 kts 319°
2026-05-08 00:48 46.36070 -1.11276 37978 ft 401 kts 319°
2026-05-08 00:48 46.40425 -1.16335 37980 ft 402 kts 319°
2026-05-08 00:49 46.44750 -1.21370 37980 ft 402 kts 319°
2026-05-08 00:49 46.49107 -1.26455 37973 ft 402 kts 319°
2026-05-08 00:50 46.53459 -1.31549 37955 ft 402 kts 319°
2026-05-08 00:50 46.57809 -1.36643 37962 ft 401 kts 319°
2026-05-08 00:51 46.61986 -1.42002 37958 ft 399 kts 313°
2026-05-08 00:51 46.65783 -1.47817 37954 ft 399 kts 311°
2026-05-08 00:52 46.69584 -1.53702 37966 ft 399 kts 312°
2026-05-08 00:52 46.73409 -1.59555 37962 ft 399 kts 312°
2026-05-08 00:53 46.77242 -1.65392 37979 ft 398 kts 312°
2026-05-08 00:53 46.81074 -1.71243 37978 ft 398 kts 312°
2026-05-08 00:54 46.84897 -1.77088 37978 ft 398 kts 312°
2026-05-08 00:54 46.88689 -1.82900 37976 ft 398 kts 312°
2026-05-08 00:55 46.92511 -1.88771 37968 ft 399 kts 312°
2026-05-08 00:55 46.96333 -1.94656 37979 ft 399 kts 312°
2026-05-08 00:56 47.00156 -2.00554 37980 ft 400 kts 312°
2026-05-08 00:56 47.04027 -2.06391 37981 ft 399 kts 313°
2026-05-08 00:57 47.07914 -2.12132 37981 ft 400 kts 313°
2026-05-08 00:57 47.11827 -2.17929 37983 ft 400 kts 313°
2026-05-08 00:58 47.15729 -2.23740 37991 ft 400 kts 313°
2026-05-08 00:58 47.19629 -2.29568 37989 ft 400 kts 313°
2026-05-08 00:59 47.23533 -2.35414 37994 ft 401 kts 313°
2026-05-08 00:59 47.27408 -2.41243 37990 ft 401 kts 313°
2026-05-08 01:00 47.31305 -2.47109 37989 ft 401 kts 313°
2026-05-08 01:00 47.35201 -2.52979 37990 ft 400 kts 313°
2026-05-08 01:01 47.39086 -2.58856 37991 ft 400 kts 313°
2026-05-08 01:01 47.42968 -2.64735 37988 ft 400 kts 313°
2026-05-08 01:02 47.46842 -2.70616 37993 ft 399 kts 312°
2026-05-08 01:02 47.50688 -2.76472 37990 ft 399 kts 312°
2026-05-08 01:03 47.53924 -2.81407 37992 ft 399 kts 312°
2026-05-08 01:03 47.57786 -2.87300 37990 ft 399 kts 313°
2026-05-08 01:04 47.62076 -2.92462 37995 ft 401 kts 322°
2026-05-08 01:04 47.66607 -2.97307 37989 ft 402 kts 322°
2026-05-08 01:05 47.71129 -3.02176 37992 ft 402 kts 322°
2026-05-08 01:05 47.75630 -3.07089 37990 ft 402 kts 322°
2026-05-08 01:06 47.80118 -3.12023 37997 ft 401 kts 321°
2026-05-08 01:06 47.84595 -3.16963 37998 ft 400 kts 321°
2026-05-08 01:07 47.89063 -3.21909 38001 ft 400 kts 321°
2026-05-08 01:07 47.93503 -3.26833 38000 ft 400 kts 321°
2026-05-08 01:08 47.97966 -3.31792 38000 ft 400 kts 321°
2026-05-08 01:08 48.02487 -3.36828 38006 ft 410 kts 321°
2026-05-08 01:09 48.07110 -3.41993 38012 ft 420 kts 321°
2026-05-08 01:09 48.11843 -3.47287 38010 ft 430 kts 321°
2026-05-08 01:10 48.16644 -3.52670 38021 ft 439 kts 321°
2026-05-08 01:10 48.21574 -3.58213 38022 ft 447 kts 321°
2026-05-08 01:11 48.26594 -3.63870 38022 ft 455 kts 321°
2026-05-08 01:11 48.31673 -3.69610 38009 ft 458 kts 321°
2026-05-08 01:12 48.36775 -3.75388 38004 ft 460 kts 321°
2026-05-08 01:12 48.41884 -3.81187 38010 ft 460 kts 321°
2026-05-08 01:13 48.46957 -3.86962 38018 ft 460 kts 321°
2026-05-08 01:13 48.52052 -3.92781 38014 ft 459 kts 321°
2026-05-08 01:14 48.57138 -3.98593 38016 ft 458 kts 321°
2026-05-08 01:14 48.62212 -4.04417 38024 ft 458 kts 321°
2026-05-08 01:15 48.67275 -4.10246 38014 ft 457 kts 321°
2026-05-08 01:15 48.72286 -4.16029 38020 ft 456 kts 321°
2026-05-08 01:16 48.77324 -4.21856 38017 ft 455 kts 321°
2026-05-08 01:16 48.82354 -4.27688 38019 ft 455 kts 321°
2026-05-08 01:17 48.87382 -4.33528 38018 ft 455 kts 321°
2026-05-08 01:17 48.92394 -4.39377 38019 ft 454 kts 321°
2026-05-08 01:18 48.97407 -4.45234 38018 ft 455 kts 321°
2026-05-08 01:18 49.02393 -4.51069 38017 ft 455 kts 321°
2026-05-08 01:19 49.07406 -4.56956 38020 ft 455 kts 321°
2026-05-08 01:19 49.12416 -4.62858 38019 ft 455 kts 321°
2026-05-08 01:20 49.17419 -4.68768 38018 ft 455 kts 321°
2026-05-08 01:20 49.22434 -4.74706 38018 ft 456 kts 320°
2026-05-08 01:21 49.27413 -4.80612 38010 ft 456 kts 320°
2026-05-08 01:21 49.32419 -4.86572 38008 ft 456 kts 320°
2026-05-08 01:22 49.37423 -4.92546 38009 ft 455 kts 320°
2026-05-08 01:22 49.42424 -4.98526 38010 ft 455 kts 320°
2026-05-08 01:23 49.47417 -5.04510 38006 ft 455 kts 321°
2026-05-08 01:23 49.52753 -5.09753 38007 ft 457 kts 329°
2026-05-08 01:24 49.58338 -5.14453 37999 ft 457 kts 330°
2026-05-08 01:24 49.63875 -5.19119 38000 ft 457 kts 329°
2026-05-08 01:25 49.69427 -5.23904 38001 ft 457 kts 329°
2026-05-08 01:25 49.74969 -5.28726 38001 ft 457 kts 329°
2026-05-08 01:26 49.80498 -5.33560 37994 ft 457 kts 329°
2026-05-08 01:26 49.86035 -5.38414 37991 ft 457 kts 329°
2026-05-08 01:27 49.91530 -5.43239 37991 ft 457 kts 329°
2026-05-08 01:27 49.94410 -5.45318 37982 ft 459 kts 340°
2026-05-08 01:27 49.97494 -5.46603 37998 ft 460 kts 348°
2026-05-08 01:28 50.03880 -5.47539 37991 ft 462 kts 354°
2026-05-08 01:28 50.10293 -5.48286 37992 ft 462 kts 354°
2026-05-08 01:29 50.16704 -5.49080 37991 ft 463 kts 354°
2026-05-08 01:29 50.23077 -5.49911 37987 ft 463 kts 353°
2026-05-08 01:30 50.29495 -5.50757 37992 ft 463 kts 353°
2026-05-08 01:30 50.35911 -5.51601 37995 ft 463 kts 354°
2026-05-08 01:31 50.42330 -5.52448 37988 ft 463 kts 354°
2026-05-08 01:31 50.48748 -5.53294 37995 ft 463 kts 354°
2026-05-08 01:32 50.55126 -5.54140 37998 ft 463 kts 353°
2026-05-08 01:32 50.61546 -5.54996 38002 ft 463 kts 354°
2026-05-08 01:33 50.67972 -5.55860 37998 ft 464 kts 354°
2026-05-08 01:33 50.74408 -5.56719 37999 ft 463 kts 354°
2026-05-08 01:34 50.80834 -5.57581 38002 ft 463 kts 353°
2026-05-08 01:34 50.87262 -5.58443 37999 ft 464 kts 354°
2026-05-08 01:35 50.93693 -5.59311 38002 ft 464 kts 354°
2026-05-08 01:35 51.00087 -5.60179 37998 ft 464 kts 354°
2026-05-08 01:36 51.06524 -5.61054 38003 ft 464 kts 354°
2026-05-08 01:36 51.12964 -5.61929 37998 ft 464 kts 353°
2026-05-08 01:37 51.19400 -5.62806 38001 ft 464 kts 353°
2026-05-08 01:37 51.22618 -5.63249 37868 ft 467 kts 353°
2026-05-08 01:37 51.25868 -5.63697 37420 ft 468 kts 353°
2026-05-08 01:37 51.29070 -5.64134 37293 ft 454 kts 353°
2026-05-08 01:38 51.32199 -5.64563 36722 ft 452 kts 353°
2026-05-08 01:38 51.35262 -5.64984 36548 ft 442 kts 353°
2026-05-08 01:38 51.38277 -5.65395 36487 ft 429 kts 353°
2026-05-08 01:38 51.41219 -5.65799 36273 ft 421 kts 353°
2026-05-08 01:39 51.44139 -5.66204 35726 ft 422 kts 353°
2026-05-08 01:39 51.47066 -5.66608 35148 ft 424 kts 353°
2026-05-08 01:39 51.49994 -5.67013 34801 ft 419 kts 353°
2026-05-08 01:39 51.52880 -5.67414 34552 ft 412 kts 353°
2026-05-08 01:40 51.55719 -5.67810 34226 ft 408 kts 353°
2026-05-08 01:40 51.58543 -5.68206 33755 ft 407 kts 353°
2026-05-08 01:40 51.61323 -5.68593 33324 ft 406 kts 353°
2026-05-08 01:40 51.64138 -5.68984 32783 ft 407 kts 353°
2026-05-08 01:41 51.66964 -5.69379 32242 ft 408 kts 353°
2026-05-08 01:41 51.69796 -5.69779 31699 ft 409 kts 353°
2026-05-08 01:41 51.72629 -5.70176 31156 ft 410 kts 353°
2026-05-08 01:41 51.75470 -5.70573 30610 ft 410 kts 353°
2026-05-08 01:42 51.78316 -5.70972 30066 ft 410 kts 353°
2026-05-08 01:42 51.81160 -5.71370 29519 ft 410 kts 354°
2026-05-08 01:42 51.84000 -5.71769 28976 ft 410 kts 354°
2026-05-08 01:42 51.86842 -5.72168 28425 ft 410 kts 354°
2026-05-08 01:43 51.89689 -5.72569 27878 ft 410 kts 354°
2026-05-08 01:43 51.92492 -5.72965 27335 ft 409 kts 354°
2026-05-08 01:43 51.95336 -5.73367 26794 ft 413 kts 354°
2026-05-08 01:43 51.98230 -5.73778 26255 ft 421 kts 354°
2026-05-08 01:44 52.01167 -5.74195 25711 ft 426 kts 354°
2026-05-08 01:44 52.04116 -5.74613 25157 ft 424 kts 354°
2026-05-08 01:44 52.07041 -5.75030 24605 ft 421 kts 354°
2026-05-08 01:44 52.09949 -5.75443 24051 ft 418 kts 354°
2026-05-08 01:45 52.12841 -5.75854 23433 ft 417 kts 354°
2026-05-08 01:45 52.15732 -5.76268 22811 ft 416 kts 354°
2026-05-08 01:45 52.18613 -5.76679 22171 ft 416 kts 354°
2026-05-08 01:45 52.21441 -5.77082 21685 ft 410 kts 354°
2026-05-08 01:46 52.24269 -5.77487 21208 ft 405 kts 354°
2026-05-08 01:46 52.27059 -5.77887 20740 ft 401 kts 354°
2026-05-08 01:46 52.29820 -5.78282 20282 ft 396 kts 354°
2026-05-08 01:46 52.32559 -5.78675 19722 ft 394 kts 354°
2026-05-08 01:47 52.35274 -5.79064 19257 ft 390 kts 354°
2026-05-08 01:47 52.37965 -5.79452 18796 ft 386 kts 354°
2026-05-08 01:47 52.40628 -5.79836 18343 ft 382 kts 354°
2026-05-08 01:48 52.45846 -5.80591 17463 ft 368 kts 354°
2026-05-08 01:48 52.48351 -5.80952 17040 ft 355 kts 354°
2026-05-08 01:48 52.50774 -5.81304 16636 ft 344 kts 354°
2026-05-08 01:48 52.53122 -5.81645 16240 ft 334 kts 354°
2026-05-08 01:49 52.55372 -5.81971 15870 ft 325 kts 354°
2026-05-08 01:49 52.57596 -5.82293 15503 ft 317 kts 354°
2026-05-08 01:49 52.59762 -5.82608 15135 ft 309 kts 354°
2026-05-08 01:49 52.61903 -5.82921 14798 ft 309 kts 354°
2026-05-08 01:50 52.64041 -5.83235 14444 ft 309 kts 354°
2026-05-08 01:50 52.66184 -5.83548 14080 ft 309 kts 354°
2026-05-08 01:50 52.68324 -5.83862 13717 ft 310 kts 354°
2026-05-08 01:50 52.70471 -5.84176 13355 ft 310 kts 354°
2026-05-08 01:51 52.72624 -5.84491 12989 ft 310 kts 354°
2026-05-08 01:51 52.74744 -5.84800 12626 ft 310 kts 354°
2026-05-08 01:51 52.76895 -5.85115 12251 ft 311 kts 354°
2026-05-08 01:51 52.79047 -5.85430 11879 ft 311 kts 354°
2026-05-08 01:52 52.81199 -5.85747 11510 ft 310 kts 354°
2026-05-08 01:52 52.83351 -5.86064 11136 ft 310 kts 354°
2026-05-08 01:52 52.85495 -5.86379 10763 ft 310 kts 354°
2026-05-08 01:52 52.87642 -5.86697 10386 ft 309 kts 354°
2026-05-08 01:53 52.89779 -5.87011 10082 ft 307 kts 354°
2026-05-08 01:53 52.91877 -5.87321 9917 ft 299 kts 354°
2026-05-08 01:53 52.93898 -5.87619 9885 ft 286 kts 354°
2026-05-08 01:53 52.95902 -5.87916 9272 ft 297 kts 354°
2026-05-08 01:54 52.97968 -5.88222 8839 ft 299 kts 354°
2026-05-08 01:54 53.00042 -5.88531 8483 ft 299 kts 354°
2026-05-08 01:54 53.02112 -5.88840 8117 ft 299 kts 354°
2026-05-08 01:54 53.04182 -5.89145 7758 ft 298 kts 354°
2026-05-08 01:55 53.06250 -5.89452 7400 ft 297 kts 354°
2026-05-08 01:55 53.08302 -5.89756 7044 ft 296 kts 354°
2026-05-08 01:55 53.10349 -5.90062 6692 ft 295 kts 354°
2026-05-08 01:55 53.12383 -5.90366 6370 ft 293 kts 354°
2026-05-08 01:56 53.14409 -5.90669 6006 ft 293 kts 354°
2026-05-08 01:56 53.16408 -5.90969 5654 ft 292 kts 354°
2026-05-08 01:56 53.18425 -5.91270 5294 ft 291 kts 354°
2026-05-08 01:56 53.20440 -5.91572 4942 ft 290 kts 354°
2026-05-08 01:57 53.22446 -5.91872 4590 ft 289 kts 354°
2026-05-08 01:57 53.24447 -5.92171 4243 ft 288 kts 354°
2026-05-08 01:57 53.26430 -5.92469 3993 ft 280 kts 354°
2026-05-08 01:57 53.28313 -5.92749 3853 ft 264 kts 354°
2026-05-08 01:58 53.30102 -5.93017 3745 ft 254 kts 354°
2026-05-08 01:58 53.31833 -5.93278 3630 ft 246 kts 354°
2026-05-08 01:58 53.33517 -5.93531 3535 ft 240 kts 354°
2026-05-08 01:58 53.35136 -5.93775 3467 ft 226 kts 354°
2026-05-08 01:59 53.36662 -5.94005 3346 ft 215 kts 354°
2026-05-08 01:59 53.38089 -5.94218 3190 ft 205 kts 353°
2026-05-08 01:59 53.39472 -5.94537 3034 ft 195 kts 338°
2026-05-08 01:59 53.40383 -5.95937 2991 ft 174 kts 287°
2026-05-08 02:00 53.40549 -5.97895 3013 ft 168 kts 274°
2026-05-08 02:00 53.40675 -5.99780 2981 ft 157 kts 276°
2026-05-08 02:00 53.40786 -6.01562 2919 ft 152 kts 275°
2026-05-08 02:00 53.40883 -6.03342 2729 ft 154 kts 275°
2026-05-08 02:01 53.40976 -6.05122 2542 ft 153 kts 275°
2026-05-08 02:01 53.41067 -6.06872 2331 ft 149 kts 275°
2026-05-08 02:01 53.41157 -6.08576 2190 ft 143 kts 275°
2026-05-08 02:01 53.41242 -6.10199 1964 ft 137 kts 275°
2026-05-08 02:02 53.41325 -6.11784 1781 ft 138 kts 275°
2026-05-08 02:02 53.41408 -6.13373 1596 ft 139 kts 275°
2026-05-08 02:02 53.41494 -6.14988 1409 ft 139 kts 275°
2026-05-08 02:02 53.41578 -6.16601 1225 ft 139 kts 275°
2026-05-08 02:03 53.41664 -6.18204 1041 ft 138 kts 275°
2026-05-08 02:03 53.41751 -6.19802 875 ft 137 kts 275°
2026-05-08 02:03 53.41829 -6.21404 708 ft 136 kts 274°
2026-05-08 02:03 53.41912 -6.23001 513 ft 138 kts 275°
2026-05-08 02:04 53.41998 -6.24583 325 ft 138 kts 275°
2026-05-08 02:04 53.42083 -6.26153 217 ft 126 kts 275°
2026-05-08 02:04 53.42152 -6.27333 209 ft 72 kts 274°
2026-05-08 02:04 53.42211 -6.27863 215 ft 37 kts 292°
2026-05-08 02:05 53.42325 -6.28143 216 ft 15 kts 345°
2026-05-08 02:05 53.42362 -6.28026 210 ft 14 kts 97°
2026-05-08 02:05 53.42354 -6.27866 217 ft 14 kts 98°
2026-05-08 02:05 53.42344 -6.27712 210 ft 13 kts 95°
2026-05-08 02:06 53.42336 -6.27559 218 ft 14 kts 95°
2026-05-08 02:06 53.42325 -6.27376 210 ft 17 kts 96°
2026-05-08 02:06 53.42314 -6.27180 216 ft 17 kts 94°
2026-05-08 02:06 53.42304 -6.26990 211 ft 16 kts 95°
2026-05-08 02:07 53.42295 -6.26807 210 ft 15 kts 94°
2026-05-08 02:07 53.42283 -6.26631 210 ft 15 kts 93°
2026-05-08 02:07 53.42275 -6.26463 210 ft 14 kts 95°
2026-05-08 02:07 53.42266 -6.26304 210 ft 14 kts 95°
2026-05-08 02:08 53.42258 -6.26149 210 ft 13 kts 95°
2026-05-08 02:08 53.42266 -6.26002 210 ft 13 kts 69°
2026-05-08 02:08 53.42314 -6.25881 212 ft 12 kts 48°
2026-05-08 02:08 53.42373 -6.25778 210 ft 12 kts 45°
2026-05-08 02:09 53.42432 -6.25679 210 ft 12 kts 45°
2026-05-08 02:09 53.42495 -6.25573 214 ft 14 kts 45°
2026-05-08 02:09 53.42575 -6.25434 209 ft 19 kts 46°
2026-05-08 02:09 53.42674 -6.25266 210 ft 21 kts 45°
2026-05-08 02:10 53.42776 -6.25089 210 ft 21 kts 46°
2026-05-08 02:10 53.42863 -6.24970 210 ft 14 kts 44°
2026-05-08 02:10 53.42924 -6.24859 210 ft 9 kts 47°
2026-05-08 02:10 53.42951 -6.24823 213 ft 5 kts 20°
2026-05-08 02:11 53.42985 -6.24815 210 ft 5 kts
2026-05-08 02:11 53.43001 -6.24813 210 ft 0 kts